sat.trackr.live / text

‹ back to catalog

STARLINK-6099

NORAD 57108 · 2023-090H

PAYLOAD ACTIVE UNKNOWN

§ Identity

Operator
Country
US
Launch date
2023-06-23
Launch site
AFETR
Launch vehicle
Mass (kg)
RCS (m²)

Purposes: comms

External: N2YO · Heavens-Above · Gunter

§ Orbital elements

Epoch: 2026-05-25T04:47:33.398304Z

Period
94.27 min
Inclination
43.0025°
Eccentricity
0.0001219
Mean motion
15.27575210 rev/d
Perigee alt
482.2 km
Apogee alt
483.9 km
Semi-major
6,861.2 km
B*
-2.7040e-6
RAAN
209.4599°
Arg perigee
270.5670°
Mean anomaly
89.5042°
Rev number
16,203

§ Raw data

STARLINK-60991 57108U 23090H   26145.19969211 -.00000336  00000+0 -27040-5 0  99922 57108  43.0025 209.4599 0001219 270.5670  89.5042 15.27575210162030

JSON: /api/v1/satellites/57108 · /tle

For live sub-satellite position, see the globe view (requires WebGL).

§ Visibility from observer

Set your observer location to see the next 7 days of passes ≥ 10°. The values pass through the URL so the page stays shareable.

No JS? Fill the form by hand. The geolocation button needs JavaScript.